Location: Caltech
(34.1382°N, 118.1253°W)
Time: 04:34:09
(UTC-07:00)

Cosmos 1937 Rocket - Visible Passes

Search period start: 25 March 2017 00:00
Search period end: 04 April 2017 00:00
Orbit: 746 x 782 km, 74.0° (Epoch: 23 March)

Date Brightness Start Highest point End Pass type
(mag) Time Alt. Az. Time Alt. Az. Time Alt. Az.
25 Mar 5.6 05:12:27 10° N 05:17:02 29° ENE 05:21:34 10° SE visible
25 Mar 4.2 19:44:17 10° SSW 19:49:26 60° WNW 19:54:40 10° N visible
26 Mar 6.4 04:35:11 10° NNE 04:38:28 16° ENE 04:41:44 10° E visible
26 Mar 3.7 06:15:35 10° NNW 06:20:45 53° WSW 06:25:52 10° S visible
26 Mar 6.8 20:51:43 10° W 20:53:40 12° WNW 20:55:38 10° NW visible
27 Mar 3.6 05:37:11 10° NNW 05:42:31 83° ENE 05:47:47 10° SSE visible
27 Mar 6.3 20:11:04 10° WSW 20:15:01 21° WNW 20:19:02 10° NNW visible
28 Mar 4.7 04:59:06 10° N 05:04:10 44° ENE 05:09:12 10° SE visible
28 Mar 5.3 19:31:40 10° SW 19:36:31 38° WNW 19:41:26 10° N visible
29 Mar 5.7 04:21:22 10° N 04:25:43 25° ENE 04:30:00 10° ESE visible
29 Mar 4.2 06:02:57 10° NW 06:07:39 33° W 06:12:18 10° SSW visible
30 Mar 6.4 03:44:19 10° NNE 03:47:06 14° ENE 03:49:51 10° E visible
30 Mar 3.5 05:24:16 10° NNW 05:29:30 62° WSW 05:34:40 10° S visible
30 Mar 6.6 19:59:37 10° W 20:02:17 14° WNW 20:04:59 10° NNW visible
31 Mar 3.7 04:45:56 10° NNW 04:51:15 72° ENE 04:56:29 10° SSE visible
01 Apr 4.8 04:07:54 10° N 04:12:52 38° ENE 04:17:45 10° SE visible
01 Apr 4.7 05:50:39 10° NW 05:54:29 20° W 05:58:17 10° SW visible
02 Apr 5.8 03:30:18 10° NNE 03:34:22 22° ENE 03:38:23 10° ESE visible
02 Apr 3.9 05:11:33 10° NW 05:16:25 38° W 05:21:13 10° SSW visible
03 Apr 6.4 02:53:38 10° NE 02:55:43 12° ENE 02:57:49 10° E visible
03 Apr 3.3 04:32:57 10° NNW 04:38:14 72° WSW 04:39:26 52° S visible
